Aeroporto :
LOGIN :

Iscrizione | Disclaimer

   EN    FR    IT 

 










Sommario :    VFR   VFR Marginale   IFR   IFR Intensivo   IFR Molto Intensivo
Visibilità : 
Base nubi : 
>= 8 km
>= 3000ft
5 / 8 km
1000 / 3000 ft
1500m / 5 km
500 / 1000 ft
800 / 1500m
200 / 500 ft
< 800m
< 200 ft
Simboli :   Temporali  Nebbia  Neve Forte  Precipitazioni Forti  Vento > 20 kt
SIGMETs :   Varie  Temporali  Ghiacco  Turbolenza  Onda orograficha  Ceneri Vulcaniche







- Altitudine del aeroporto : 44 ft
- Codice IATA : SOU
- Carte del aeroporto


EGHI - Southampton

ULTIMO METAR :
  • 211020Z 20012KT 9999 SCT026 SCT038 18/11 Q1021

METARs OBSOLETI :
  • 210950Z 22007KT 190V300 9999 SCT028 19/11 Q1021
  • 210920Z 24005KT 180V290 9999 FEW018 19/12 Q1021
  • 210850Z 21006KT 180V250 9999 SCT016 18/13 Q1021
  • 210820Z 23006KT 190V260 9999 SCT022 17/13 Q1021
  • 210750Z 22005KT 170V260 CAVOK 16/13 Q1021
  • 210720Z VRB03KT CAVOK 16/13 Q1020

TAF TAF EGHI
Valido dal 21 a 09 ore il 21 a 18 ore UTC


210757Z 2109/2118 22007KT 9999 SCT040
ATIS : +44 23 8062 7103
Nessun NOTAM noto per questo aeroporto.



MetMap, La meteo Aeronautica in un colpo d'occhio ! - Copyright ORBIFLY Dicembre 2007 - Disclaimer

ORBIFLY MET'MAP TEAM :

Programmazione e sviluppo : Alexandra Zaïnal
Concezione e sviluppo : Baudouin d'Aumeries
Co-Programmazione e sviluppo : Marc-Olivier Méhu
Supporto tecnico e logistico : Manuel Goepfert
Aiuto per la traduzione : Arnaldo La Scala

Contatto : metmap@orbifly.com




FONTI E CREDITI :

   NOAA